Time,TemperatureF,DewpointF,PressureIn,WindDirection,WindDirectionDegrees,WindSpeedMPH,WindSpeedGustMPH,Humidity,HourlyPrecipIn,Conditions,Clouds,dailyrainin,SolarRadiationWatts/m^2,SoftwareType,DateUTC
2013-01-10 00:03:00,36.0,28.0,-100.00,West,270,5.0,12.0,73,0.00,,,0.00,0.000000,,2013-01-10 05:03:00,
2013-01-10 00:10:00,33.0,30.0,-100.00,North,356,2.0,17.0,87,0.00,,,0.00,0.000000,,2013-01-10 05:10:00,
2013-01-10 00:33:00,33.0,30.0,-100.00,North,356,2.0,17.0,87,0.00,,,0.00,0.000000,,2013-01-10 05:33:00,
2013-01-10 00:43:00,33.0,30.0,-100.00,North,356,2.0,17.0,87,0.00,,,0.00,0.000000,,2013-01-10 05:43:00,
2013-01-10 00:53:00,33.0,30.0,-100.00,North,356,2.0,17.0,87,0.00,,,0.00,0.000000,,2013-01-10 05:53:00,
2013-01-10 01:02:00,33.0,30.0,-100.00,North,356,2.0,17.0,87,0.00,,,0.00,0.000000,,2013-01-10 06:02:00,
2013-01-10 01:10:00,35.0,33.0,-100.00,WNW,283,5.0,14.0,92,0.00,,,0.00,0.000000,,2013-01-10 06:10:00,
2013-01-10 01:32:00,35.0,33.0,-100.00,WNW,283,5.0,14.0,92,0.00,,,0.00,0.000000,,2013-01-10 06:32:00,
2013-01-10 01:42:00,35.0,33.0,-100.00,WNW,283,5.0,14.0,92,0.00,,,0.00,0.000000,,2013-01-10 06:42:00,
2013-01-10 01:52:00,35.0,33.0,-100.00,WNW,283,5.0,14.0,92,0.00,,,0.00,0.000000,,2013-01-10 06:52:00,
2013-01-10 02:02:00,35.0,33.0,-100.00,WNW,283,5.0,14.0,92,0.00,,,0.00,0.000000,,2013-01-10 07:02:00,
2013-01-10 02:10:00,34.0,29.0,-100.00,West,276,5.0,16.0,83,0.00,,,0.00,0.000000,,2013-01-10 07:10:00,
2013-01-10 02:42:00,34.0,29.0,-100.00,West,276,5.0,16.0,83,0.00,,,0.00,0.000000,,2013-01-10 07:42:00,
2013-01-10 02:52:00,34.0,29.0,-100.00,West,276,5.0,16.0,83,0.00,,,0.00,0.000000,,2013-01-10 07:52:00,
2013-01-10 03:02:00,34.0,29.0,-100.00,West,276,5.0,16.0,83,0.00,,,0.00,0.000000,,2013-01-10 08:02:00,
2013-01-10 03:10:00,35.0,31.0,-100.00,WNW,282,6.0,17.0,84,0.00,,,0.00,0.000000,,2013-01-10 08:10:00,
2013-01-10 03:33:00,35.0,31.0,-100.00,WNW,282,6.0,17.0,84,0.00,,,0.00,0.000000,,2013-01-10 08:33:00,
2013-01-10 03:42:00,35.0,31.0,-100.00,WNW,282,6.0,17.0,84,0.00,,,0.00,0.000000,,2013-01-10 08:42:00,
2013-01-10 03:53:00,35.0,31.0,-100.00,WNW,282,6.0,17.0,84,0.00,,,0.00,0.000000,,2013-01-10 08:53:00,
2013-01-10 04:02:00,35.0,31.0,-100.00,WNW,282,6.0,17.0,84,0.00,,,0.00,0.000000,,2013-01-10 09:02:00,
2013-01-10 04:10:00,35.0,27.0,-100.00,West,275,7.0,22.0,72,0.00,,,0.00,0.000000,,2013-01-10 09:10:00,
2013-01-10 04:43:00,35.0,27.0,-100.00,West,275,7.0,22.0,72,0.00,,,0.00,0.000000,,2013-01-10 09:43:00,
2013-01-10 04:53:00,35.0,27.0,-100.00,West,275,7.0,22.0,72,0.00,,,0.00,0.000000,,2013-01-10 09:53:00,
2013-01-10 05:03:00,35.0,27.0,-100.00,West,275,7.0,22.0,72,0.00,,,0.00,0.000000,,2013-01-10 10:03:00,
2013-01-10 05:10:00,35.0,25.0,-100.00,West,272,9.0,21.0,66,0.00,,,0.00,0.000000,,2013-01-10 10:10:00,
2013-01-10 05:33:00,35.0,25.0,-100.00,West,272,9.0,21.0,66,0.00,,,0.00,0.000000,,2013-01-10 10:33:00,
2013-01-10 05:43:00,35.0,25.0,-100.00,West,272,9.0,21.0,66,0.00,,,0.00,0.000000,,2013-01-10 10:43:00,
2013-01-10 05:53:00,35.0,25.0,-100.00,West,272,9.0,21.0,66,0.00,,,0.00,0.000000,,2013-01-10 10:53:00,
2013-01-10 06:03:00,35.0,25.0,-100.00,West,272,9.0,21.0,66,0.00,,,0.00,0.000000,,2013-01-10 11:03:00,
2013-01-10 06:10:00,35.0,25.0,-100.00,West,274,6.0,18.0,67,0.00,,,0.00,0.000000,,2013-01-10 11:10:00,
2013-01-10 06:43:00,35.0,25.0,-100.00,West,274,6.0,18.0,67,0.00,,,0.00,0.000000,,2013-01-10 11:43:00,
2013-01-10 06:53:00,35.0,25.0,-100.00,West,274,6.0,18.0,67,0.00,,,0.00,0.000000,,2013-01-10 11:53:00,
2013-01-10 07:03:00,35.0,25.0,-100.00,West,274,6.0,18.0,67,0.00,,,0.00,0.000000,,2013-01-10 12:03:00,
2013-01-10 09:10:00,35.0,24.0,-100.00,West,264,4.0,16.0,65,-99.99,,,0.00,16.000000,,2013-01-10 14:10:00,
2013-01-10 09:33:00,35.0,24.0,-100.00,West,264,4.0,16.0,65,-99.99,,,0.00,16.000000,,2013-01-10 14:33:00,
2013-01-10 09:43:00,35.0,24.0,-100.00,West,264,4.0,16.0,65,-99.99,,,0.00,16.000000,,2013-01-10 14:43:00,
2013-01-10 09:53:00,35.0,24.0,-100.00,West,264,4.0,16.0,65,-99.99,,,0.00,16.000000,,2013-01-10 14:53:00,
2013-01-10 10:03:00,35.0,24.0,-100.00,West,264,4.0,16.0,65,-99.99,,,0.00,16.000000,,2013-01-10 15:03:00,
2013-01-10 10:10:00,37.0,25.0,-100.00,West,271,6.0,16.0,61,0.01,,,0.01,61.000000,,2013-01-10 15:10:00,
2013-01-10 10:33:00,37.0,25.0,-100.00,West,271,6.0,16.0,61,0.01,,,0.01,61.000000,,2013-01-10 15:33:00,
2013-01-10 10:43:00,37.0,25.0,-100.00,West,271,6.0,16.0,61,0.01,,,0.01,61.000000,,2013-01-10 15:43:00,
2013-01-10 10:53:00,37.0,25.0,-100.00,West,271,6.0,16.0,61,0.01,,,0.01,61.000000,,2013-01-10 15:53:00,
2013-01-10 11:03:00,37.0,25.0,-100.00,West,271,6.0,16.0,61,0.01,,,0.01,61.000000,,2013-01-10 16:03:00,
2013-01-10 11:10:00,37.0,24.0,-100.00,West,264,5.0,13.0,59,0.02,,,0.03,86.000000,,2013-01-10 16:10:00,
2013-01-10 11:43:00,37.0,24.0,-100.00,West,264,5.0,13.0,59,0.02,,,0.03,86.000000,,2013-01-10 16:43:00,
2013-01-10 11:53:00,37.0,24.0,-100.00,West,264,5.0,13.0,59,0.02,,,0.03,86.000000,,2013-01-10 16:53:00,
2013-01-10 12:03:00,37.0,24.0,-100.00,West,264,5.0,13.0,59,0.02,,,0.03,86.000000,,2013-01-10 17:03:00,
2013-01-10 12:10:00,38.0,24.0,-100.00,West,274,5.0,17.0,56,0.01,,,0.04,121.000000,,2013-01-10 17:10:00,
2013-01-10 12:43:00,38.0,24.0,-100.00,West,274,5.0,17.0,56,0.01,,,0.04,121.000000,,2013-01-10 17:43:00,
2013-01-10 12:53:00,38.0,24.0,-100.00,West,274,5.0,17.0,56,0.01,,,0.04,121.000000,,2013-01-10 17:53:00,
2013-01-10 13:03:00,38.0,24.0,-100.00,West,274,5.0,17.0,56,0.01,,,0.04,121.000000,,2013-01-10 18:03:00,
2013-01-10 13:10:00,39.0,24.0,-100.00,West,273,4.0,19.0,55,0.04,,,0.08,149.000000,,2013-01-10 18:10:00,
2013-01-10 13:44:00,39.0,24.0,-100.00,West,273,4.0,19.0,55,0.04,,,0.08,149.000000,,2013-01-10 18:44:00,
2013-01-10 13:53:00,39.0,24.0,-100.00,West,273,4.0,19.0,55,0.04,,,0.08,149.000000,,2013-01-10 18:53:00,
2013-01-10 14:03:00,39.0,24.0,-100.00,West,273,4.0,19.0,55,0.04,,,0.08,149.000000,,2013-01-10 19:03:00,
2013-01-10 14:10:00,38.0,23.0,-100.00,SW,228,3.0,16.0,55,0.05,,,-99.99,102.000000,,2013-01-10 19:10:00,
2013-01-10 14:44:00,38.0,23.0,-100.00,SW,228,3.0,16.0,55,0.05,,,-99.99,102.000000,,2013-01-10 19:44:00,
2013-01-10 14:53:00,38.0,23.0,-100.00,SW,228,3.0,16.0,55,0.05,,,-99.99,102.000000,,2013-01-10 19:53:00,
2013-01-10 15:03:00,38.0,23.0,-100.00,SW,228,3.0,16.0,55,0.05,,,-99.99,102.000000,,2013-01-10 20:03:00,
2013-01-10 15:10:00,36.0,23.0,-100.00,NW,304,2.0,12.0,59,0.02,,,0.15,47.000000,,2013-01-10 20:10:00,
2013-01-10 15:33:00,36.0,23.0,-100.00,NW,304,2.0,12.0,59,0.02,,,0.15,47.000000,,2013-01-10 20:33:00,
2013-01-10 15:43:00,36.0,23.0,-100.00,NW,304,2.0,12.0,59,0.02,,,0.15,47.000000,,2013-01-10 20:43:00,
2013-01-10 15:53:00,36.0,23.0,-100.00,NW,304,2.0,12.0,59,0.02,,,0.15,47.000000,,2013-01-10 20:53:00,
2013-01-10 16:04:00,36.0,23.0,-100.00,NW,304,2.0,12.0,59,0.02,,,0.15,47.000000,,2013-01-10 21:04:00,
2013-01-10 16:10:00,35.0,23.0,-100.00,NW,304,3.0,12.0,61,0.01,,,0.16,23.000000,,2013-01-10 21:10:00,
2013-01-10 16:33:00,35.0,23.0,-100.00,NW,304,3.0,12.0,61,0.01,,,0.16,23.000000,,2013-01-10 21:33:00,
2013-01-10 16:43:00,35.0,23.0,-100.00,NW,304,3.0,12.0,61,0.01,,,0.16,23.000000,,2013-01-10 21:43:00,
2013-01-10 16:53:00,35.0,23.0,-100.00,NW,304,3.0,12.0,61,0.01,,,0.16,23.000000,,2013-01-10 21:53:00,
2013-01-10 17:04:00,35.0,23.0,-100.00,NW,304,3.0,12.0,61,0.01,,,0.16,23.000000,,2013-01-10 22:04:00,
2013-01-10 17:10:00,34.0,23.0,-100.00,West,265,4.0,7.0,63,0.00,,,0.16,1.000000,,2013-01-10 22:10:00,
2013-01-10 17:44:00,34.0,23.0,-100.00,West,265,4.0,7.0,63,0.00,,,0.16,1.000000,,2013-01-10 22:44:00,
2013-01-10 18:03:00,34.0,23.0,-100.00,West,265,4.0,7.0,63,0.00,,,0.16,1.000000,,2013-01-10 23:03:00,
2013-01-10 18:10:00,34.0,23.0,-100.00,NNW,329,3.0,10.0,64,0.00,,,0.16,0.000000,,2013-01-10 23:10:00,
2013-01-10 18:43:00,34.0,23.0,-100.00,NNW,329,3.0,10.0,64,0.00,,,0.16,0.000000,,2013-01-10 23:43:00,
2013-01-10 18:53:00,34.0,23.0,-100.00,NNW,329,3.0,10.0,64,0.00,,,0.16,0.000000,,2013-01-10 23:53:00,
2013-01-10 19:03:00,34.0,23.0,-100.00,NNW,329,3.0,10.0,64,0.00,,,0.16,0.000000,,2013-01-11 00:03:00,
2013-01-10 19:43:00,33.0,23.0,-100.00,West,266,3.0,12.0,65,0.01,,,0.17,0.000000,,2013-01-11 00:43:00,
2013-01-10 19:53:00,33.0,23.0,-100.00,West,266,3.0,12.0,65,0.01,,,0.17,0.000000,,2013-01-11 00:53:00,
2013-01-10 20:03:00,33.0,23.0,-100.00,West,266,3.0,12.0,65,0.01,,,0.17,0.000000,,2013-01-11 01:03:00,
2013-01-10 20:10:00,32.0,23.0,-100.00,East,80,2.0,6.0,68,0.00,,,0.17,0.000000,,2013-01-11 01:10:00,
2013-01-10 20:34:00,32.0,23.0,-100.00,East,80,2.0,6.0,68,0.00,,,0.17,0.000000,,2013-01-11 01:34:00,
2013-01-10 20:43:00,32.0,23.0,-100.00,East,80,2.0,6.0,68,0.00,,,0.17,0.000000,,2013-01-11 01:43:00,
2013-01-10 20:53:00,32.0,23.0,-100.00,East,80,2.0,6.0,68,0.00,,,0.17,0.000000,,2013-01-11 01:53:00,
2013-01-10 21:03:00,32.0,23.0,-100.00,East,80,2.0,6.0,68,0.00,,,0.17,0.000000,,2013-01-11 02:03:00,
2013-01-10 21:10:00,28.0,20.0,-100.00,NE,49,1.0,6.0,70,0.00,,,0.17,0.000000,,2013-01-11 02:10:00,
2013-01-10 21:54:00,28.0,20.0,-100.00,NE,49,1.0,6.0,70,0.00,,,0.17,0.000000,,2013-01-11 02:54:00,
2013-01-10 22:03:00,28.0,20.0,-100.00,NE,49,1.0,6.0,70,0.00,,,0.17,0.000000,,2013-01-11 03:03:00,
2013-01-10 22:10:00,26.0,19.0,-100.00,ESE,108,1.0,4.0,75,0.00,,,0.17,0.000000,,2013-01-11 03:10:00,
2013-01-10 22:34:00,26.0,19.0,-100.00,ESE,108,1.0,4.0,75,0.00,,,0.17,0.000000,,2013-01-11 03:34:00,
2013-01-10 22:43:00,26.0,19.0,-100.00,ESE,108,1.0,4.0,75,0.00,,,0.17,0.000000,,2013-01-11 03:43:00,
2013-01-10 22:53:00,26.0,19.0,-100.00,ESE,108,1.0,4.0,75,0.00,,,0.17,0.000000,,2013-01-11 03:53:00,
2013-01-10 23:02:00,26.0,19.0,-100.00,ESE,108,1.0,4.0,75,0.00,,,0.17,0.000000,,2013-01-11 04:02:00,
2013-01-10 23:10:00,24.0,18.0,-100.00,WSW,250,1.0,5.0,78,0.00,,,0.17,0.000000,,2013-01-11 04:10:00,
2013-01-10 23:33:00,24.0,18.0,-100.00,WSW,250,1.0,5.0,78,0.00,,,0.17,0.000000,,2013-01-11 04:33:00,
2013-01-10 23:43:00,24.0,18.0,-100.00,WSW,250,1.0,5.0,78,0.00,,,0.17,0.000000,,2013-01-11 04:43:00,
2013-01-10 23:53:00,24.0,18.0,-100.00,WSW,250,1.0,5.0,78,0.00,,,0.17,0.000000,,2013-01-11 04:53:00,